{"data":{"norad_id":62045,"intl_designator":"2024-216P","name":"STARLINK-32618","alt_names":[],"object_type":"PAYLOAD","status":"ACTIVE","operator":null,"country":"US","launch_date":"2024-11-21","launch_site_code":"AFETR","launch_vehicle":null,"mission":null,"orbit_class":"UNKNOWN","rcs_meters":null,"size_class":null,"mass_kg":null,"dimensions":null,"purposes":["comms"],"wikipedia_slug":null,"has_3d_model":false,"image_url":null,"decayed_at":null,"tle_current":{"epoch":"2026-09-21T06:12:41.760288Z","epoch_age_seconds":119968,"freshness":"FRESH","line1":"1 62045U 24216P   26264.25881667  .00005791  00000+0  21977-3 0  9995","line2":"2 62045  42.9992 231.9966 0001327 272.7281  87.3418 15.27582148103785","mean_motion":15.27582148,"eccentricity":0.0001327,"inclination_deg":42.9992,"raan_deg":231.9966,"arg_perigee_deg":272.7281,"mean_anomaly_deg":87.3418,"bstar":0.00021977,"rev_number":10378,"period_min":94.266616161058,"perigee_km":482.13218562102,"apogee_km":483.95314270388,"semimajor_km":6861.1796641624,"source":"CELESTRAK","updated_at":"2026-09-22T09:00:49.488863Z"}}}